RH
77 82 86 82 87 98 95 95 80 67 37 47 62 80 85 56 12 62 71 87 62 15 19 33 11 13 12 27 42 26 27 25 25 26 19 17 18 18 19 21 22 24 28 32
73 82 72 80 92 70 100 99 94 96 84 49 82 73 90 19 16 21 18 38 22 28 20 13 9 11 13 15 39 54 43 24 19 18 18 18 20 21 21 22 23 25 30 32
78 84 92 88 85 93 96 89 95 91 79 57 76 94 94 44 20 24 22 26 16 13 16 19 19 12 9 14 37 63 48 23 17 20 20 21 21 20 24 27 29 31 32 33
92 85 93 93 85 100 85 98 93 83 93 25 70 94 78 98 56 82 32 23 24 16 17 20 36 10 10 13 38 47 33 25 22 24 22 19 18 20 23 25 26 24 22 22
95 99 100 97 80 66 91 88 93 70 91 85 98 94 80 86 70 84 57 42 26 11 16 19 24 15 17 16 37 40 20 20 26 26 23 23 23 22 22 22 21 22 23 24
85 65 53 66 76 94 48 47 66 90 76 99 95 83 87 80 88 70 91 64 50 31 25 20 17 16 24 30 36 34 25 21 26 22 24 25 26 25 23 22 22 24 25 26
61 68 97 98 73 55 39 31 39 38 62 62 71 78 87 95 87 91 54 53 57 36 19 15 23 36 26 19 26 23 23 24 26 26 27 23 21 22 23 24 25 26 28 30
74 90 77 81 50 80 70 37 76 90 82 43 58 87 95 86 72 44 46 68 68 24 20 28 36 21 19 21 22 20 20 22 22 20 20 21 23 24 25 27 29 31 33 34
55 92 85 84 92 82 77 86 78 100 77 81 95 77 99 79 64 28 64 40 17 16 36 46 37 15 15 15 16 16 16 18 20 22 23 23 25 30 32 34 38 46 57 77
67 84 99 98 70 55 51 46 71 72 61 18 19 29 30 83 72 87 48 19 18 18 18 18 16 16 16 18 19 19 19 20 21 24 32 39 39 38 39 51 67 84 72 86
90 74 91 89 90 56 35 24 34 44 29 20 18 66 67 70 58 41 44 20 18 18 17 17 17 17 18 20 21 21 20 22 33 43 43 41 42 54 80 79 76 78 82 76
82 62 34 73 34 33 27 21 32 40 31 20 12 17 28 74 75 72 53 23 18 17 17 16 16 16 18 20 23 31 31 31 32 38 46 55 73 80 68 61 71 80 79 68
45 30 24 33 38 24 25 20 21 11 10 19 15 18 26 27 30 26 24 20 18 17 16 16 17 16 16 20 27 40 52 50 60 68 58 62 70 68 59 66 69 72 64 78
18 18 19 20 16 16 20 69 23 16 15 18 22 22 28 24 20 17 16 20 23 19 19 17 16 14 12 23 26 41 55 69 74 80 56 50 57 46 58 76 76 67 75 74
16 11 10 10 11 14 17 40 54 30 25 22 27 20 22 21 24 18 13 12 14 24 29 25 22 35 38 42 63 75 92 85 75 66 44 43 46 62 80 70 70 76 78 64
11 10 10 11 13 13 13 49 26 30 26 24 25 22 19 18 17 17 16 18 25 22 31 35 33 29 35 72 87 83 91 61 55 47 62 64 58 67 73 84 89 88 73 96
7 6 6 10 11 11 11 12 19 26 36 42 32 31 33 25 18 15 18 27 29 29 30 34 39 38 27 20 38 34 37 50 69 77 70 64 74 79 88 96 76 99 100 97
31 34 21 20 13 12 13 14 21 28 32 28 25 22 23 24 22 25 26 20 19 19 18 17 17 20 16 20 30 43 57 66 63 59 62 76 82 87 85 93 100 100 100 100
88 61 51 39 21 21 14 16 24 30 29 28 28 25 28 32 26 22 22 22 18 13 10 8 8 13 32 65 78 73 67 60 60 66 72 72 71 83 100 100 100 100 100 100
33 33 31 26 25 22 15 19 21 25 23 22 26 27 24 22 23 20 17 14 10 9 10 11 23 43 46 44 40 47 48 52 67 70 67 69 81 90 92 100 100 99 98 86
23 24 24 21 18 17 18 23 24 20 14 11 12 12 12 10 9 8 8 6 6 10 27 43 45 42 38 38 44 53 67 71 79 74 74 78 94 92 100 100 100 100 100 100
11 11 12 12 11 10 10 10 11 12 10 10 8 7 6 6 6 6 7 10 17 38 45 38 31 38 55 59 71 83 85 80 68 65 68 74 79 97 100 100 100 100 100 100
11 11 11 12 13 11 9 9 8 8 7 7 6 5 5 5 6 8 14 31 47 45 37 27 37 62 70 76 74 69 66 69 65 59 45 42 70 81 100 100 100 100 100 98
12 13 12 14 13 11 9 8 8 8 10 9 7 6 6 7 11 21 42 48 42 39 30 30 51 71 73 73 70 68 66 57 32 10 6 6 14 51 99 100 100 100 78 53
18 16 17 15 14 10 10 9 9 9 10 9 8 8 9 16 29 41 44 44 38 35 38 52 68 69 64 62 63 62 37 11 5 4 4 5 9 44 98 100 80 48 47 50
16 15 14 12 14 14 14 15 15 15 14 12 11 12 20 35 44 48 46 45 52 58 74 74 66 63 61 64 54 21 6 5 4 4 5 6 9 23 82 60 58 69 77 69
Wind_Speed
11 13 15 18 22 14 16 10 9 9 7 8 5 9 10 14 8 7 9 12 8 3 3 5 3 5 8 8 14 16 16 17 17 16 14 11 14 17 21 26 29 31 34 37
13 17 12 14 22 18 15 8 4 8 10 6 8 10 11 7 7 7 4 1 4 1 4 7 9 8 11 14 14 17 19 18 11 8 12 14 18 22 27 31 34 37 41 43
10 15 17 15 21 15 2 9 14 14 16 13 16 20 21 10 8 12 10 5 0 3 4 10 14 18 19 19 17 19 23 15 11 13 16 18 22 26 30 35 38 42 44 46
7 15 21 18 17 8 2 5 19 19 13 9 16 19 15 16 8 7 16 15 15 11 5 11 17 23 27 28 23 20 17 18 16 20 23 27 30 33 36 39 42 45 48 51
8 18 18 22 21 8 2 9 12 10 7 8 14 15 20 19 12 16 13 16 19 19 18 17 19 25 29 29 25 20 11 14 18 23 28 32 36 39 42 45 49 52 54 55
12 11 11 12 6 11 1 2 11 11 14 14 13 17 13 12 15 16 20 19 15 19 23 23 24 24 26 25 20 14 15 19 24 29 32 35 38 42 46 50 53 55 56 58
12 14 4 9 2 6 9 7 12 16 18 21 18 22 14 9 12 12 12 17 15 23 22 21 21 19 18 17 17 19 21 24 28 33 37 41 44 48 51 54 55 56 57 60
15 12 7 5 6 9 11 13 15 15 18 13 21 22 8 12 10 13 13 12 17 17 19 18 15 9 10 14 19 23 26 29 32 36 40 44 47 51 53 55 57 58 59 60
21 21 26 21 21 23 17 11 13 18 22 17 9 12 16 18 18 19 19 12 11 11 11 9 9 12 16 20 25 28 31 33 36 40 44 48 50 52 54 57 58 59 59 57
24 26 23 28 20 19 17 17 18 22 23 18 9 13 17 17 17 19 18 8 8 9 12 15 18 20 22 26 30 34 38 39 41 43 47 50 52 53 55 56 56 58 60 55
23 21 31 27 8 12 17 17 20 20 22 20 10 13 15 14 18 21 20 15 13 14 16 20 23 26 28 29 32 38 43 45 46 47 49 51 53 54 55 57 57 59 58 58
22 24 20 17 8 10 16 16 19 20 16 21 13 12 18 18 21 21 22 23 21 20 22 26 30 32 33 35 36 40 47 50 51 49 49 51 53 55 57 56 57 56 57 60
20 25 22 17 17 17 16 16 19 20 16 14 14 10 16 18 21 24 22 24 25 27 30 33 36 38 41 42 44 45 45 50 51 53 52 53 55 55 55 53 54 57 59 58
21 23 21 21 21 21 19 13 18 20 20 14 12 12 15 20 25 26 23 19 24 33 37 40 43 45 47 45 47 43 48 53 54 55 55 52 54 54 52 54 57 60 56 60
25 25 24 24 22 25 20 18 18 19 19 17 11 16 14 24 25 31 32 29 32 36 42 47 48 48 48 52 51 51 50 53 55 53 52 53 54 54 56 59 60 60 61 66
28 27 28 26 25 27 24 24 22 18 18 19 16 19 21 26 31 33 36 36 39 43 43 46 49 51 50 49 46 50 49 52 51 50 50 54 56 58 58 56 58 62 66 71
28 26 27 26 26 25 27 14 20 20 20 21 22 22 24 32 33 34 35 36 42 44 45 46 47 49 51 53 47 48 48 47 47 50 54 56 56 56 55 58 61 66 72 71
22 23 26 25 25 26 17 21 18 18 22 23 26 27 28 31 34 37 39 41 42 45 47 49 51 51 49 46 46 46 47 48 51 53 54 54 55 56 61 61 66 63 71 77
19 24 26 25 25 22 22 19 19 20 23 24 24 27 30 33 36 39 41 43 46 49 50 51 49 45 41 39 42 46 49 51 52 53 54 56 59 60 59 68 67 66 71 77
22 25 26 24 24 22 22 21 20 22 26 23 24 27 31 33 36 39 42 45 47 49 46 45 43 43 46 48 50 50 52 51 50 54 56 58 60 60 63 70 67 74 70 72
18 18 18 17 18 19 19 18 21 22 22 22 24 28 31 34 38 41 44 46 47 42 39 44 45 46 48 49 51 51 51 52 53 56 59 61 62 62 62 67 76 81 78 76
9 9 10 11 12 13 14 15 18 21 23 25 29 32 35 38 41 43 45 45 42 42 44 44 45 48 48 47 46 48 51 53 57 60 62 63 63 64 63 72 77 73 70 71
11 10 11 13 13 16 16 18 20 23 26 29 33 37 40 42 43 44 42 42 44 45 46 47 48 46 45 47 48 51 54 57 61 62 63 62 62 61 61 66 68 69 73 68
15 15 15 16 19 20 22 25 27 29 31 34 38 41 42 43 42 41 43 46 48 50 51 51 48 47 47 49 53 56 60 62 61 61 60 61 62 62 62 64 68 69 55 54
22 22 23 23 26 29 31 33 35 37 39 40 42 43 44 42 42 44 47 49 51 51 50 48 48 49 52 56 59 62 61 59 58 60 62 64 65 64 63 66 62 55 55 56
30 30 29 31 31 33 35 37 40 42 44 45 46 45 44 44 46 49 51 52 52 50 47 48 51 55 58 61 62 60 58 60 63 65 67 67 67 66 63 59 55 57 57 57
Wind_Direction
157 176 184 188 178 129 132 83 110 127 119 173 207 275 311 308 343 238 301 211 134 115 302 302 341 351 323 311 306 315 314 312 309 302 303 310 315 321 320 323 323 322 320 320
211 197 209 196 147 127 146 173 205 165 240 205 233 267 268 263 314 316 303 280 3 12 314 319 321 323 315 316 309 312 320 320 317 328 318 316 315 317 321 320 318 319 319 319
222 216 212 191 142 130 39 152 146 201 223 240 198 240 246 252 337 319 318 299 218 268 305 313 320 327 332 328 320 314 321 319 318 321 313 319 316 316 315 314 316 318 316 314
268 229 204 168 146 136 301 185 185 192 241 207 210 230 267 256 203 297 295 303 305 292 304 323 319 329 330 328 322 316 314 301 318 318 320 318 317 316 315 315 315 312 312 311
141 123 161 152 164 185 239 258 222 240 235 243 227 247 257 260 270 279 259 264 283 300 316 324 321 322 320 319 318 314 292 295 310 313 314 313 314 314 314 313 312 312 313 313
161 187 155 159 188 205 92 334 222 220 228 242 283 286 289 309 280 342 283 264 303 309 314 317 311 307 307 308 308 301 296 298 307 310 310 309 309 310 310 310 310 311 311 309
207 176 219 158 67 266 249 216 210 217 226 222 239 255 265 287 277 296 316 315 293 304 297 302 300 303 302 307 306 304 300 301 304 306 307 309 309 309 309 308 308 308 307 308
194 169 215 217 253 257 258 235 204 237 235 236 238 261 304 278 287 305 305 311 314 294 294 293 299 305 308 302 298 296 300 301 303 305 306 306 306 307 306 305 306 307 307 308
216 203 212 205 205 238 247 244 213 247 253 289 240 312 297 300 298 303 322 319 302 302 299 310 305 307 303 299 296 299 301 303 305 306 305 304 304 304 303 305 306 307 309 311
239 247 235 221 213 215 240 237 228 242 260 270 265 265 255 281 292 297 304 306 302 308 307 306 308 308 305 303 303 304 304 306 306 304 303 302 303 303 303 305 306 306 308 305
233 251 247 248 205 222 227 233 241 243 258 270 264 231 254 263 272 285 293 300 308 296 296 297 297 298 300 304 306 304 302 303 304 304 304 304 303 302 303 305 306 305 306 308
236 254 254 251 224 255 251 249 248 255 256 262 263 244 255 254 265 276 285 286 289 289 290 293 294 295 298 300 301 302 301 303 305 305 304 303 302 302 303 304 304 304 306 307
235 246 248 251 251 256 246 247 253 265 264 253 256 240 245 254 261 268 267 275 287 293 295 296 297 298 298 300 303 305 305 308 308 309 307 304 300 300 302 304 305 307 307 310
230 236 243 246 246 251 247 248 249 253 265 261 257 251 253 262 261 268 268 269 287 300 301 300 302 304 307 304 304 304 306 307 305 304 303 301 300 305 307 307 306 306 308 307
233 237 240 244 242 251 253 250 251 242 250 252 246 262 261 270 279 288 295 300 304 304 302 304 307 307 306 307 309 305 306 301 301 300 302 302 306 307 308 308 309 309 308 309
242 245 247 247 250 253 257 259 266 258 263 270 262 258 260 266 270 278 287 297 298 294 295 298 298 302 305 305 300 301 296 298 301 304 303 304 310 310 308 308 307 307 312 309
240 246 247 249 247 250 255 263 247 249 248 263 265 261 255 267 279 285 292 289 283 292 294 296 299 301 302 301 299 297 300 302 303 303 305 308 307 307 307 308 307 307 306 305
241 243 245 248 247 250 248 241 245 247 249 253 260 267 271 277 284 286 285 288 293 294 297 298 300 302 302 304 304 304 303 302 303 304 305 304 306 308 309 310 306 303 301 307
247 245 249 250 249 251 242 238 240 246 250 256 263 272 276 279 281 284 291 294 295 297 299 301 301 306 307 301 299 300 301 303 305 304 306 309 311 309 305 304 302 303 303 306
248 247 249 252 253 249 238 244 243 251 258 265 268 269 273 279 281 285 288 289 293 296 300 301 304 305 303 303 304 304 304 304 306 308 309 309 308 307 308 302 296 301 304 306
241 240 246 247 246 245 247 245 253 258 268 271 276 278 281 284 286 289 291 294 297 304 304 302 305 304 303 303 303 305 306 307 309 310 310 309 305 308 301 298 295 294 301 301
228 230 236 239 243 245 255 259 266 270 277 283 285 287 287 289 291 293 294 300 303 301 302 302 302 301 301 301 302 303 305 307 310 310 308 305 305 304 304 301 302 305 303 299
235 248 255 261 264 266 271 274 277 282 286 290 288 290 291 293 295 298 301 299 299 301 301 301 301 300 299 300 303 307 308 308 307 306 305 304 303 301 298 298 303 301 298 310
248 258 267 275 279 277 278 282 284 288 290 290 291 292 295 296 298 298 298 298 299 300 300 300 300 300 303 304 305 307 308 308 307 306 306 305 304 302 299 301 299 306 318 319
258 264 271 281 283 287 289 292 294 296 296 296 298 298 297 297 297 297 297 298 299 300 299 299 301 302 303 304 306 308 309 309 309 308 308 309 308 305 301 301 310 315 317 318
261 269 276 277 280 281 286 290 292 295 296 297 298 298 297 298 299 299 298 299 300 300 301 302 302 303 305 307 307 308 309 309 310 310 310 309 306 304 305 309 312 314 315 314